Location: Unspecified
(0.0000°N, 0.0000°E)
Time: 22:58:05
(UTC+00:00)

Hubble Space Telescope - Pass Details

Date: 23 April 2018
Orbit: 537 x 541 km, 28.5° (Epoch: 19 October)

Event Time Altitude Azimuth Distance (km) Brightness Sun altitude
Rises 19:14:36 0° 275° (W) 2,672 5.9 -18.6°
Reaches altitude 10° 19:17:52 10° 302° (WNW) 1,781 4.5 -19.4°
Maximum altitude 19:19:56 13° 332° (NNW) 1,569 3.6 -19.9°
Drops below altitude 10° 19:22:01 10° 3° (N) 1,780 3.5 -20.4°
Enters shadow 19:24:06 - 23° (NNE) 2,302 3.9 -20.9°
